Torna al catalogo

CZ-4 DEB

AttivoSSO
NORAD 26208·DEBRIS·🇨🇳 China

Lanciato Oct 14, 1999 da Taiyuan Satellite Launch Center

Loading…

Prossimi Passaggi (prossime 24 ore)

TLE

AggiornatoSource: Space-Track

Epoca: Sep 14, 2026, 10:15 UTC

1 26208U 99057CW  26257.42722888  .00000390  00000-0  99052-4 0  9992
2 26208  98.5532 238.0869 0068534 218.5076 295.2103 14.55156971400339

Traccia CZ-4 DEB in tempo reale con AllMySat

Download on the App Store